Regional Weather Roundup
Issued by NWS

Home | Current Version | Previous Version | Graphics & Text | Print | Product List | Glossary On
Versions: 1 2 3 4 5 6 7 8 9 10 11 12 13 14 15 16 17 18 19 20 21 22 23 24 25 26 27 28 29 30 31 32 33 34 35 36 37 38 39 40 41 42 43 44 45 46 47 48 49 50
000
ASUS45 KPSR 311810
RWRAZ

ARIZONA HOURLY REGIONAL WEATHER ROUNDUP
NATIONAL WEATHER SERVICE PHOENIX AZ
1100 AM MST MON AUG 31 2015

NOTE: FAIR INDICATES FEW OR NO CLOUDS BELOW 12,000 FEET WITH NO
SIGNIFICANT WEATHER AND/OR OBSTRUCTIONS TO VISIBILITY.

AZZ001>003-036-311900-
NORTHWEST ARIZONA

CITY           SKY/WX    TMP DP  RH WIND       PRES   REMARKS
BULLHEAD CITY  SUNNY    100  48  17 SW12      29.83S
KINGMAN        MOSUNNY   93  41  16 W10       30.03S
6HR MIN TEMP:  71; 6HR MAX TEMP:  93;

$$

AZZ004>008-015-016-018-311900-
NORTH CENTRAL ARIZONA

CITY           SKY/WX    TMP DP  RH WIND       PRES   REMARKS
GRAND CANYON   PTSUNNY   70  55  59 S5        30.30S
WILLIAMS       PTSUNNY   73  54  49 SE8       30.35S
PRESCOTT       PTSUNNY   80  56  43 SE13      30.18S
6HR MIN TEMP:  63; 6HR MAX TEMP:  83;

FLAGSTAFF      MOSUNNY   72  55  55 SW8       30.33F
6HR MIN TEMP:  50; 6HR MAX TEMP:  72;

PAYSON         SUNNY     81  55  41 CALM      30.22S
PAGE           MOSUNNY   77  59  53 NW7       30.14F
6HR MIN TEMP:  65; 6HR MAX TEMP:  79;

$$

AZZ009>014-017-311900-
NORTHEAST ARIZONA

CITY           SKY/WX    TMP DP  RH WIND       PRES   REMARKS
WINSLOW        MOSUNNY   80  59  48 E7        30.18F
6HR MIN TEMP:  61; 6HR MAX TEMP:  80;

SAINT JOHNS    PTSUNNY   78  53  41 VRB5      30.24S
6HR MIN TEMP:  58; 6HR MAX TEMP:  79;

WINDOW ROCK    PTSUNNY   75  54  47 VRB3      30.31S
6HR MIN TEMP:  56; 6HR MAX TEMP:  77; 6HR PCP:  0.03;

SHOW LOW       MOSUNNY   73  54  49 SW8       30.30F
$$

AZZ023-311900-
GREATER PHOENIX AREA

CITY           SKY/WX    TMP DP  RH WIND       PRES   REMARKS
PHOENIX        MOSUNNY   97  63  32 SE8       29.88F
6HR MIN TEMP:  85; 6HR MAX TEMP:  98;

BUCKEYE        SUNNY     97  59  28 SE9       29.88S
GLENDALE       MOSUNNY   99  63  30 E7        29.90S HX 100
LUKE AFB       SUNNY     99  62  30 E3        29.87F HX 100
6HR MIN TEMP:  83; 6HR MAX TEMP:  99;

DEER VALLEY    SUNNY     95  60  31 VRB5      29.91S
6HR MIN TEMP:  85; 6HR MAX TEMP:  96;

SCOTTSDALE     SUNNY     95  61  32 S8        29.93S
6HR MIN TEMP:  85; 6HR MAX TEMP:  97;

MESA-FALCON    PTSUNNY   97  61  30 SE12      29.91S
MESA-GATEWAY   MOSUNNY   93  63  36 VRB6      29.93F
CHANDLER       MOSUNNY   95  63  34 S6        29.91S
$$

AZZ027-028-311900-
SOUTHWEST MARICOPA COUNTY AND PINAL COUNTY

CITY           SKY/WX    TMP DP  RH WIND       PRES   REMARKS
CASA GRANDE    SUNNY     97  63  32 CALM      29.91F
6HR MIN TEMP:  81; 6HR MAX TEMP:  97;

GILA BEND      MOSUNNY  100  59  25 VRB3      29.84F HX 100
6HR MIN TEMP:  85; 6HR MAX TEMP: 101;

$$

AZZ503-504-507>509-311900-
SOUTHEAST ARIZONA

CITY           SKY/WX    TMP DP  RH WIND       PRES   REMARKS
TUCSON         SUNNY     92  59  33 CALM      30.03F
6HR MIN TEMP:  76; 6HR MAX TEMP:  93;

DAVIS-MONTHAN  SUNNY     91  61  36 SW3       30.01F
6HR MIN TEMP:  74; 6HR MAX TEMP:  91;

RYAN FIELD     SUNNY     93  63  36 CALM      30.01F
NOGALES        SUNNY     87  61  41 MISG      30.11F
6HR MIN TEMP:  62; 6HR MAX TEMP:  87;

SIERRA VISTA   MOSUNNY   84  56  38 VRB5      30.18F
6HR MIN TEMP:  65; 6HR MAX TEMP:  84;

DOUGLAS        SUNNY     83  56  39 S6        30.14S
6HR MIN TEMP:  61; 6HR MAX TEMP:  83;

SAFFORD        SUNNY     90  58  33 VRB7      30.03F
6HR MIN TEMP:  71; 6HR MAX TEMP:  91;

$$

AZZ020-021-025-026-031-311900-
SOUTHWEST ARIZONA

CITY           SKY/WX    TMP DP  RH WIND       PRES   REMARKS
YUMA           MOSUNNY   98  70  40 SE10      29.81R HX 105
6HR MIN TEMP:  84; 6HR MAX TEMP:  98;

$$

CAZ031-033-041-043-047-048-061-311900-
SOUTHERN CALIFORNIA

CITY           SKY/WX    TMP DP  RH WIND       PRES   REMARKS
DOWNTOWN L.A.  MOSUNNY   79  63  57 SE5       29.91S
6HR MIN TEMP:  69; 6HR MAX TEMP:  79;

L.A. AIRPORT   MOSUNNY   75  63  66 SE6       29.93R
6HR MIN TEMP:  68; 6HR MAX TEMP:  76;

SAN DIEGO      MOSUNNY   73  61  65 S9        29.95R
6HR MIN TEMP:  70; 6HR MAX TEMP:  73;

BURBANK        SUNNY     79  63  57 S6        29.92S
6HR MIN TEMP:  69; 6HR MAX TEMP:  79;

ONTARIO        MOSUNNY   78  62  57 VRB5      29.93R
6HR MIN TEMP:  67; 6HR MAX TEMP:  79;

RIVERSIDE      SUNNY     80  62  54 VRB5      29.92S
6HR MIN TEMP:  67; 6HR MAX TEMP:  80;

PALM SPRINGS   MOSUNNY   98  47  17 SE6       29.83R
6HR MIN TEMP:  79; 6HR MAX TEMP:  98;

EL CENTRO NAS  PTSUNNY  100  47  16 SE5       29.80S
6HR MIN TEMP:  81; 6HR MAX TEMP: 100;

IMPERIAL       SUNNY    100  47  16 E6        29.79R
6HR MIN TEMP:  85; 6HR MAX TEMP: 100;

BLYTHE         SUNNY    100  47  16 S8        29.82R
6HR MIN TEMP:  82; 6HR MAX TEMP: 100;

NEEDLES        SUNNY    103  43  13 VRB7      29.84S
6HR MIN TEMP:  86; 6HR MAX TEMP: 103;

$$

NVZ020-UTZ003-311900-
SOUTHERN NEVADA-UTAH

CITY           SKY/WX    TMP DP  RH WIND       PRES   REMARKS
LAS VEGAS      MOSUNNY   94  46  19 CALM      29.88R
6HR MIN TEMP:  80; 6HR MAX TEMP:  94;

SALT LAKE CITY MOSUNNY   79  33  19 CALM      30.08F
6HR MIN TEMP:  62; 6HR MAX TEMP:  79;

$$

NMZ009-TXZ055-311900-
NEW MEXICO-WEST TEXAS

CITY           SKY/WX    TMP DP  RH WIND       PRES   REMARKS
ALBUQUERQUE    MOSUNNY   83  48  29 NW7       30.19F
6HR MIN TEMP:  66; 6HR MAX TEMP:  84;

EL PASO        SUNNY     87  46  24 S7        30.09F
6HR MIN TEMP:  69; 6HR MAX TEMP:  88;

$$


........................KEY........................
SKY/WX - SKY CONDITION/WEATHER
TMP    - TEMPERATURE IN FAHRENHEIT
DP     - DEW POINT IN FAHRENHEIT
RH     - RELATIVE HUMIDITY IN PERCENT
WIND   - DIRECTION AND SPEED IN MILES PER HOUR (MPH)
VRB    - VARIABLE WIND DIRECTION
PRES   - MEAN SEA LEVEL PRESSURE IN INCHES OF MERCURY
         F - FALLING PRESSURE   R - RISING PRESSURE
         S - STEADY PRESSURE
VSB    - VISIBILITY IN MILES
HX     - HEAT INDEX IN FAHRENHEIT
WCI    - WIND CHILL INDEX IN FAHRENHEIT
TC     - TEMPERATURE IN CELSIUS WHICH IS ALSO KNOWN AS
         TEMPERATURE IN CENTIGRADE
AFB    - AIR FORCE BASE
         LUKE AFB IS LUKE AIR FORCE BASE
         DAVIS-MONTHAN IS DAVIS-MONTHAN AIR FORCE BASE
NAS    - NAVAL AIR STATION
         EL CENTRO NAS IS EL CENTRO NAVAL AIR STATION
N/A    - NOT AVAILABLE




USA.gov is the U.S. government's official web portal to all federal, state and local government web resources and services.